Location: El Azufral
(10.3513°N, 67.1528°W)
Time: 19:29:38
(UTC+00:00)

ADEOS - Pass Details

Date: 13 June 2024
Orbit: 791 x 793 km, 98.9° (Epoch: 24 July)

Event Time Altitude Azimuth Distance (km) Brightness Sun altitude
Exits shadow 23:46:45 - 163° (SSE) 2,602 5.8 -13.3°
Reaches altitude 10° 23:47:22 10° 163° (SSE) 2,353 5.6 -13.4°
Maximum altitude 23:52:34 78° 77° (ENE) 811 3.5 -14.6°
Drops below altitude 10° 23:57:45 10° 351° (N) 2,351 6.5 -15.7°
Sets 00:00:04 0° 350° (N) 3,279 7.3 -16.2°
